Wind_Speed
11 10 10 9 11 14 13 13 13 13 18 19 20 22 24 23 25 26 26 26 29 31 33 34 33 29 26 23 20 19 20 20 20 20 21 21 22 23 24 25 25 25 26 26
6 7 9 11 14 17 16 15 15 16 17 18 19 22 24 24 25 27 28 27 31 33 36 35 32 29 29 26 23 21 21 21 21 21 23 25 26 27 27 28 29 29 29 29
8 9 11 13 15 18 19 18 16 14 14 17 20 22 24 26 27 28 29 29 33 34 33 34 31 30 27 26 24 23 23 23 23 23 23 26 28 29 29 30 31 32 33 33
11 12 13 13 15 16 15 15 16 15 15 15 17 20 24 26 29 30 31 32 31 31 32 29 28 30 28 27 26 24 24 25 26 25 26 27 28 30 31 33 35 36 34 34
9 11 13 13 12 13 13 13 15 16 17 18 18 19 21 24 27 29 30 30 30 30 29 29 29 30 30 29 28 27 27 28 28 29 29 31 32 33 34 35 36 37 37 37
10 11 12 11 12 13 14 14 15 15 17 19 19 20 23 24 25 28 29 28 28 27 28 28 28 30 30 30 31 30 30 31 31 31 32 34 35 37 37 37 38 38 38 36
8 10 10 11 13 13 14 15 12 11 14 16 16 21 28 27 23 24 27 27 27 27 27 27 29 30 31 32 32 32 33 34 34 35 36 36 38 39 40 39 38 37 37 35
12 10 10 9 10 11 13 16 16 13 13 13 16 25 29 29 24 22 23 25 26 27 27 28 29 30 31 33 34 36 37 37 37 37 39 39 39 40 41 41 40 39 39 40
9 7 10 11 10 11 12 16 16 16 15 16 21 28 29 28 25 23 23 23 24 26 27 28 30 31 33 34 36 38 39 38 38 39 39 39 40 42 43 43 42 42 42 42
7 6 8 9 10 13 13 14 14 16 14 16 22 26 26 25 25 25 25 26 27 27 27 28 29 30 32 34 35 37 38 38 39 40 40 40 41 42 42 42 42 43 43 45
4 7 9 9 11 11 15 17 17 16 15 14 16 20 26 26 25 25 26 27 28 28 27 27 28 29 31 33 34 35 36 38 39 40 41 41 42 44 44 44 45 46 47 47
4 4 8 10 11 12 13 15 18 19 17 14 15 19 17 18 19 20 23 25 27 29 29 29 30 30 31 33 34 35 37 38 39 41 42 42 43 44 45 45 46 48 48 49
2 4 5 8 11 12 11 13 17 21 20 18 18 22 19 15 14 15 18 21 24 27 29 30 31 32 34 35 36 36 37 38 40 41 42 44 44 45 45 46 48 48 49 50
1 1 4 8 10 11 10 10 13 17 21 22 23 25 24 20 17 17 18 21 24 26 28 30 32 33 34 35 36 37 38 39 41 42 43 44 44 45 47 48 49 49 49 50
1 2 3 2 4 5 6 9 13 16 21 23 24 24 23 22 19 19 20 22 24 26 28 30 32 33 34 35 36 37 38 39 40 41 43 44 45 46 46 47 48 48 48 49
3 4 4 3 1 1 6 10 14 17 20 23 24 26 26 26 24 23 23 24 25 27 29 30 31 32 33 34 36 37 37 38 39 40 41 42 43 43 44 45 46 46 47 48
5 5 4 3 1 4 8 10 12 15 18 21 24 25 27 27 26 26 25 25 26 27 28 29 30 31 32 33 33 34 35 37 37 38 38 39 40 40 41 41 43 44 45 46
7 6 5 3 3 6 8 10 13 15 17 21 23 26 27 27 27 27 27 26 26 26 27 28 29 30 30 30 32 33 34 34 34 35 35 36 36 37 38 39 40 41 42 43
7 7 6 6 7 9 11 12 15 17 18 20 21 23 24 25 26 26 25 25 25 26 26 26 26 26 26 27 27 29 29 30 31 31 32 33 33 34 34 35 36 37 38 39
8 7 7 7 9 10 12 14 16 18 17 18 19 20 21 22 21 21 21 21 22 22 23 23 23 23 24 24 25 25 26 26 27 27 28 28 29 30 31 32 33 34 34 36
8 8 8 10 11 12 14 16 17 17 17 18 18 17 17 17 17 17 17 17 18 18 19 19 19 20 21 21 22 22 23 23 24 24 24 25 25 26 27 28 29 30 31 31
7 8 9 11 12 14 16 16 16 16 17 16 15 14 14 13 13 13 13 13 14 14 15 15 16 16 17 18 19 19 19 20 20 21 22 22 23 23 23 24 25 26 27 28
7 9 10 12 13 14 15 15 15 15 14 14 12 11 11 10 10 11 11 11 12 12 13 13 13 14 15 15 16 17 17 18 18 18 19 19 19 20 21 22 23 23 24 24
6 9 10 12 14 15 15 15 15 14 14 13 12 10 10 9 9 9 9 9 9 10 11 12 12 13 14 15 15 15 15 15 15 15 16 16 17 18 19 19 20 20 19 19
7 9 11 13 15 16 16 16 16 15 14 13 12 11 10 9 8 8 8 8 9 10 11 12 12 13 13 13 14 14 14 14 14 14 14 15 16 16 16 17 16 15 15 15
7 9 12 14 16 17 17 17 17 16 14 13 12 11 10 9 8 8 8 8 9 9 10 11 12 12 12 12 12 12 13 13 13 13 13 14 14 14 14 13 12 12 12 12
Wind_Direction
265 258 245 241 235 213 215 218 215 218 224 227 221 210 210 214 221 224 224 219 220 227 232 232 228 226 228 233 241 247 250 253 254 256 257 257 258 260 264 267 267 270 271 271
265 268 246 230 227 223 213 212 202 196 214 214 210 208 208 213 218 219 217 216 217 219 227 229 226 224 225 231 237 246 251 254 256 261 261 259 260 262 266 268 269 270 272 274
254 251 248 237 234 228 218 210 203 205 220 218 208 211 214 218 220 218 218 218 219 221 224 226 229 228 230 231 235 244 250 256 260 264 267 267 264 264 267 270 269 271 274 276
249 256 256 252 239 226 217 214 210 204 207 211 209 213 218 220 223 221 222 225 227 227 225 227 230 231 235 235 238 246 252 257 263 269 269 268 269 269 269 270 271 271 274 279
246 255 255 245 235 222 209 212 215 207 202 205 214 218 227 226 223 222 225 231 233 234 232 232 233 233 235 238 243 249 253 258 263 267 269 269 268 270 270 271 275 275 276 282
238 239 245 237 227 217 209 210 214 212 208 213 209 218 233 231 230 226 227 231 234 238 237 237 236 238 239 244 247 249 253 258 261 265 267 269 270 270 271 273 278 279 280 284
253 240 237 230 226 218 208 200 201 212 220 222 215 220 237 235 231 226 226 232 236 238 238 237 239 242 245 248 252 254 256 260 263 266 268 271 274 274 275 277 279 282 285 290
268 233 213 221 215 213 211 192 186 203 217 224 225 233 239 244 244 235 232 234 237 239 240 240 241 243 246 250 253 256 259 262 264 268 269 271 276 277 277 278 282 286 290 293
257 226 200 201 206 200 206 192 195 213 211 211 215 227 239 248 251 245 242 240 238 240 241 241 242 244 247 250 253 257 259 262 264 267 269 272 275 276 280 282 285 289 291 295
235 213 194 201 204 195 197 202 208 216 234 235 229 230 242 246 246 244 242 241 240 241 241 242 243 246 248 250 252 255 258 261 264 267 271 273 275 278 280 282 285 290 293 294
234 183 184 191 192 200 200 204 208 215 236 255 257 246 238 236 235 235 238 240 241 239 240 242 244 247 250 252 254 256 258 261 263 266 270 273 275 277 279 282 285 288 290 291
272 197 180 186 188 194 204 205 212 218 229 246 278 278 265 242 238 235 237 239 239 239 240 242 246 248 250 252 255 257 259 261 264 266 270 273 275 277 279 282 285 286 288 289
260 176 164 176 189 194 203 210 213 221 227 237 262 275 274 269 255 251 248 247 247 246 246 247 249 251 252 254 256 259 261 263 266 269 271 274 276 278 280 282 284 286 287 288
266 193 174 182 183 185 191 214 220 222 227 235 248 260 270 273 272 266 262 257 255 253 253 253 254 255 257 258 259 261 264 266 269 271 273 275 278 279 281 283 284 285 286 287
338 349 84 111 146 158 191 223 228 230 229 235 245 260 268 268 266 265 266 265 262 261 260 259 260 262 262 263 263 265 266 268 270 272 273 275 277 278 280 282 283 284 285 286
4 16 55 63 47 231 242 246 243 240 243 249 255 262 269 276 280 276 271 269 268 265 264 264 264 266 266 266 267 268 269 270 271 273 274 276 278 279 280 281 282 283 284 285
22 20 35 46 355 277 272 268 264 262 259 259 263 267 269 276 279 279 276 273 270 268 267 267 266 267 268 268 268 269 270 271 272 274 275 277 278 279 280 281 283 284 285 285
26 27 30 27 334 296 294 290 283 281 278 274 273 274 277 277 278 278 276 273 271 267 266 268 269 271 271 271 271 271 273 274 274 275 277 278 280 282 283 284 285 286 287 289
19 16 14 5 320 302 303 302 298 296 294 287 283 280 280 278 277 276 273 271 270 268 269 271 272 273 273 273 273 274 275 275 275 276 279 281 282 284 286 288 289 291 293 295
10 6 0 345 326 314 309 311 308 305 303 296 292 288 286 283 279 276 274 272 272 270 270 270 271 272 273 274 275 276 277 278 279 280 282 284 285 288 290 292 294 296 298 300
2 359 350 339 330 329 321 319 315 312 308 304 299 293 291 289 284 281 280 277 276 275 274 275 275 275 275 277 277 279 279 281 283 285 287 289 291 294 296 297 299 300 302 303
355 350 346 342 338 331 328 325 322 318 315 313 308 302 298 295 291 287 285 283 281 280 279 280 280 279 279 281 283 283 284 285 286 288 291 293 295 297 299 301 303 305 308 310
353 351 348 346 342 338 336 334 331 327 325 323 320 316 312 305 299 294 291 289 289 288 286 284 284 285 287 287 288 289 288 288 289 291 293 295 298 301 304 307 310 312 314 316
356 351 351 350 348 347 345 344 342 338 336 335 333 329 326 320 311 306 306 302 298 296 294 292 292 291 290 289 291 293 293 294 295 296 299 302 304 308 311 313 315 318 320 322
357 355 356 357 355 353 352 351 350 347 344 343 340 338 334 329 325 319 314 309 305 302 298 298 299 298 296 295 296 295 295 297 298 300 303 306 308 311 314 317 321 325 329 333
357 1 1 1 360 358 357 355 354 352 349 346 343 342 341 338 334 332 328 323 318 315 313 312 311 308 305 303 301 298 296 298 299 300 302 304 307 311 316 322 329 336 342 348
Height
5773 5775 5776 5778 5781 5783 5786 5790 5794 5800 5800 5802 5805 5810 5813 5817 5821 5825 5828 5831 5834 5836 5838 5839 5842 5846 5850 5853 5856 5858 5860 5862 5863 5865 5866 5866 5867 5868 5869 5869 5869 5870 5870 5870
5772 5773 5775 5776 5778 5780 5783 5787 5791 5794 5796 5799 5803 5806 5809 5814 5817 5819 5823 5826 5828 5831 5832 5832 5833 5840 5844 5848 5851 5853 5855 5857 5859 5860 5861 5862 5862 5863 5864 5864 5865 5864 5864 5864
5770 5772 5771 5773 5775 5777 5780 5784 5787 5791 5794 5796 5800 5804 5807 5810 5812 5815 5818 5821 5820 5823 5823 5822 5829 5834 5837 5842 5845 5848 5850 5852 5854 5856 5856 5856 5856 5857 5859 5859 5859 5858 5857 5857
5767 5769 5769 5770 5772 5774 5777 5782 5784 5787 5790 5794 5798 5800 5803 5805 5807 5810 5813 5815 5815 5816 5816 5817 5824 5830 5834 5837 5840 5843 5845 5847 5849 5850 5851 5851 5851 5852 5852 5852 5852 5851 5850 5850
5765 5766 5766 5767 5770 5772 5776 5779 5782 5784 5788 5792 5795 5798 5799 5800 5802 5805 5808 5811 5813 5812 5813 5816 5820 5824 5827 5831 5835 5838 5840 5842 5843 5845 5846 5845 5845 5845 5845 5845 5844 5844 5844 5843
5761 5762 5764 5765 5767 5770 5773 5777 5780 5782 5786 5788 5791 5795 5795 5795 5796 5799 5803 5805 5808 5810 5812 5814 5817 5819 5821 5826 5830 5832 5834 5835 5837 5838 5839 5839 5838 5837 5837 5837 5837 5836 5836 5835
5758 5759 5761 5762 5765 5768 5771 5775 5779 5782 5785 5787 5790 5791 5789 5789 5790 5794 5799 5802 5805 5807 5809 5811 5814 5816 5819 5822 5824 5826 5827 5829 5830 5831 5832 5832 5832 5831 5830 5830 5830 5829 5828 5826
5754 5755 5757 5760 5763 5766 5769 5773 5778 5782 5785 5788 5789 5787 5785 5787 5788 5792 5795 5799 5801 5803 5805 5807 5809 5812 5814 5816 5818 5820 5822 5823 5824 5824 5825 5825 5825 5825 5823 5822 5821 5820 5820 5819
5752 5753 5755 5757 5761 5765 5768 5771 5775 5777 5778 5781 5782 5781 5782 5784 5787 5789 5792 5795 5797 5798 5800 5802 5805 5807 5809 5811 5812 5814 5815 5816 5817 5818 5818 5818 5818 5818 5816 5815 5813 5812 5811 5810
5751 5752 5754 5757 5760 5763 5767 5770 5773 5775 5775 5776 5777 5777 5778 5779 5782 5785 5787 5790 5792 5794 5795 5797 5799 5801 5802 5804 5805 5807 5808 5808 5809 5810 5810 5810 5810 5810 5809 5807 5806 5804 5803 5802
5750 5752 5754 5756 5759 5763 5766 5768 5770 5773 5774 5774 5772 5773 5770 5772 5774 5777 5781 5784 5786 5788 5790 5792 5793 5795 5796 5797 5799 5800 5801 5801 5802 5802 5803 5802 5802 5802 5801 5800 5798 5796 5795 5794
5750 5751 5752 5755 5757 5760 5763 5766 5769 5770 5770 5770 5768 5769 5762 5762 5766 5771 5775 5778 5780 5783 5784 5785 5787 5788 5790 5791 5792 5793 5793 5794 5794 5795 5795 5795 5794 5793 5792 5791 5789 5788 5786 5784
5750 5751 5752 5754 5758 5759 5762 5764 5765 5767 5768 5768 5767 5766 5760 5759 5763 5766 5770 5772 5775 5777 5778 5779 5781 5782 5783 5783 5784 5785 5786 5786 5787 5786 5786 5786 5785 5784 5782 5781 5779 5777 5775 5773
5751 5750 5751 5753 5754 5756 5759 5762 5763 5764 5765 5764 5763 5761 5760 5758 5760 5763 5765 5767 5769 5770 5771 5772 5773 5774 5775 5775 5776 5777 5777 5777 5777 5777 5777 5776 5775 5773 5772 5770 5768 5766 5764 5761
5752 5751 5751 5751 5753 5754 5758 5759 5760 5760 5759 5760 5759 5758 5757 5755 5756 5758 5759 5761 5762 5763 5764 5764 5765 5766 5766 5767 5767 5767 5768 5768 5767 5767 5766 5765 5764 5763 5761 5759 5757 5755 5753 5750
5753 5752 5752 5753 5754 5755 5756 5757 5757 5757 5757 5756 5756 5755 5753 5751 5751 5752 5753 5754 5755 5755 5756 5756 5756 5757 5757 5758 5758 5758 5758 5758 5758 5757 5756 5755 5754 5752 5751 5749 5747 5744 5742 5739
5755 5753 5753 5753 5755 5755 5756 5755 5755 5754 5753 5753 5752 5750 5747 5747 5746 5747 5747 5747 5748 5748 5748 5748 5748 5748 5748 5749 5749 5749 5749 5748 5748 5747 5746 5745 5744 5742 5741 5739 5737 5734 5732 5729
5756 5755 5754 5754 5755 5754 5756 5753 5752 5750 5749 5748 5746 5745 5743 5742 5741 5740 5740 5740 5741 5741 5740 5740 5740 5740 5740 5740 5740 5740 5740 5739 5739 5738 5737 5736 5735 5733 5731 5729 5727 5724 5721 5718
5757 5756 5755 5754 5753 5752 5751 5750 5749 5747 5745 5742 5741 5739 5738 5736 5736 5734 5734 5734 5734 5734 5733 5733 5733 5733 5733 5733 5732 5732 5731 5731 5730 5729 5728 5727 5726 5724 5722 5720 5718 5715 5712 5709
5757 5756 5755 5754 5752 5751 5750 5747 5745 5744 5741 5738 5736 5734 5733 5731 5730 5729 5728 5728 5728 5727 5727 5727 5726 5726 5726 5726 5725 5725 5724 5724 5723 5722 5721 5720 5718 5717 5714 5712 5709 5706 5703 5700
5758 5756 5755 5753 5751 5749 5747 5744 5743 5741 5739 5735 5732 5730 5728 5726 5726 5725 5723 5723 5723 5722 5722 5721 5721 5720 5720 5720 5719 5719 5718 5717 5716 5715 5714 5713 5711 5709 5707 5705 5702 5699 5695 5691
5758 5756 5755 5753 5750 5750 5745 5742 5740 5737 5733 5731 5728 5726 5724 5723 5721 5720 5720 5719 5719 5718 5718 5717 5716 5716 5715 5714 5714 5713 5712 5711 5710 5709 5708 5706 5705 5703 5700 5698 5695 5692 5688 5684
5758 5757 5754 5753 5751 5747 5743 5740 5737 5733 5731 5728 5725 5723 5722 5720 5719 5718 5717 5716 5715 5715 5714 5713 5712 5712 5711 5710 5709 5708 5707 5706 5705 5703 5702 5701 5699 5697 5694 5692 5689 5685 5682 5678
5758 5756 5754 5751 5748 5745 5742 5738 5735 5732 5729 5726 5724 5722 5720 5718 5717 5715 5714 5713 5712 5712 5711 5710 5709 5708 5707 5706 5704 5703 5702 5701 5700 5698 5697 5696 5694 5692 5689 5687 5684 5680 5677 5673
5758 5756 5754 5751 5748 5744 5741 5737 5734 5730 5727 5725 5722 5720 5718 5717 5715 5714 5712 5711 5710 5709 5708 5706 5705 5704 5702 5701 5700 5699 5698 5696 5695 5694 5693 5691 5690 5687 5685 5682 5680 5677 5673 5670
5757 5756 5754 5751 5748 5744 5741 5736 5733 5730 5727 5724 5722 5719 5717 5716 5714 5713 5711 5710 5708 5707 5705 5703 5702 5700 5699 5697 5696 5695 5694 5692 5691 5690 5689 5688 5686 5684 5682 5679 5677 5674 5671 5668